Tracking 35280 objects as of 7-Sep-2026
HD Live streaming from Space Station
objects crossing your sky now

COSMOS 1181

Track COSMOS 1181 now!
10-day predictions
COSMOS 1181 is classified as:


NORAD ID: 11803
Int'l Code: 1980-039A
Launch date: May 20, 1980
Source: Commonwealth of Independent States (former USSR) (CIS)
Launch site: PLESETSK MISSILE AND SPACE COMPLEX (PKMTR)
Your satellite tracking list
Your tracking list is empty




NASA's NSSDC Master Catalog

Two Line Element Set (TLE):
1 11803U 80039A   26249.75214942  .00000031  00000-0  16847-4 0  9994
2 11803  82.9458 155.4581 0022841  16.2359 355.6566 13.74209939321169
Source of the keplerian elements: AFSPC